User: anonymous   Login
Location: Chandrammap?lem
(16.9200°N, 81.0051°E)
Time: 17:01:51
(UTC+00:00)
Language:

GOES 2 Rocket - Orbit

View from above orbital plane
View from above orbital plane
View from above satellite
View from above satellite

Ground track
Ground track

The orbit data is extracted from the following two-line orbital elements,

1 10062U 77048B   24201.76575050  .00000666  00000-0  21788-3 0  9996
2 10062  28.4183  12.9161 0731695  23.7605 339.5033 13.37838152293507
Epoch (UTC): 19 July 2024 18:22:40
Eccentricity: 0.0731695
inclination: 28.4183°
perigee height: 569 km
apogee height: 1666 km
right ascension of ascending node: 12.9161°
argument of perigee: 23.7605°
revolutions per day: 13.37838152
mean anomaly at epoch: 339.5033°
orbit number at epoch: 29350

The dashed part of the orbit path shows where the satellite is in the earth's shadow,  

DLR